Date String (YYYY-MM-DD hh:mm:ss) UTC,Instrument flags,Ambient pressure (hPa),Sample flow (lpm),Bypass flow (lpm),Sample temperature (°C),Ambient temperature (°C),ASC tube jacket temperature (°C),LED temperature (°C),Box temperature (°C),Sample RH (%),Span deviation,Mass concentration (μg/m³),Mass concentration (μg/m³),Mass concentration (μg/m³)
DateTimeUTC,F1_M11,P_M11,Q1_M11,Q2_M11,T1_M11,T2_M11,T3_M11,T4_M11,T5_M11,U1_M11,ZSPAN_M11,X0_M11,X2_M11,X1_M11
2022-11-14 02:00:00,,0824.7,5.00,0.00,23.1,21.5,00.0,32.0,25.0,07.2,0000.0,0008.95,0003.49,0002.76
2022-11-14 02:01:00,,0824.7,4.99,0.00,23.1,21.5,00.0,32.0,25.0,07.2,0000.0,0008.99,0003.48,0002.77
2022-11-14 02:02:00,,0824.8,5.00,0.00,23.1,21.4,00.0,32.0,24.9,07.2,0000.0,0009.23,0003.49,0002.78
2022-11-14 02:03:00,,0824.8,5.00,0.00,23.1,21.4,00.0,32.0,24.9,07.2,0000.0,0009.52,0003.53,0002.82
2022-11-14 02:04:00,,0824.8,5.00,0.00,23.1,21.4,00.0,31.9,24.9,07.2,0000.0,0010.23,0003.53,0002.85
2022-11-14 02:05:00,,0824.9,4.99,0.00,23.1,21.4,00.0,31.9,24.9,07.2,0000.0,0010.06,0003.55,0002.86
2022-11-14 02:06:00,,0824.9,5.00,0.00,23.1,21.4,00.0,31.9,24.9,07.2,0000.0,0010.04,0003.61,0002.90
2022-11-14 02:07:00,,0824.9,4.99,0.00,23.1,21.5,00.0,31.9,24.9,07.3,0000.0,0010.15,0003.61,0002.93
2022-11-14 02:08:00,,0824.9,4.99,0.00,23.1,21.5,00.0,31.9,24.9,07.4,0000.0,0010.93,0003.64,0002.96
2022-11-14 02:09:00,,0824.9,5.01,0.00,23.1,21.5,00.0,31.9,24.9,07.3,0000.0,0010.79,0003.61,0002.99
2022-11-14 02:10:00,,0824.9,5.01,0.00,23.1,21.5,00.0,31.9,24.9,07.3,0000.0,0010.88,0003.61,0003.02
2022-11-14 02:11:00,,0824.9,5.01,0.00,23.1,21.5,00.0,31.9,24.9,07.3,0000.0,0010.99,0003.64,0003.07
2022-11-14 02:12:00,,0824.9,4.99,0.00,23.1,21.5,00.0,31.9,24.9,07.3,0000.0,0011.09,0003.66,0003.09
2022-11-14 02:13:00,,0825.0,4.99,0.00,23.1,21.6,00.0,31.9,24.9,07.3,0000.0,0011.38,0003.67,0003.10
2022-11-14 02:14:00,,0825.0,5.01,0.00,23.0,21.5,00.0,31.9,24.9,07.3,0000.0,0011.62,0003.71,0003.12
2022-11-14 02:15:00,,0825.1,5.01,0.00,23.0,21.5,00.0,31.9,24.9,07.3,0000.0,0010.77,0003.71,0003.13
2022-11-14 02:16:00,,0825.1,4.99,0.00,23.0,21.5,00.0,31.9,24.9,07.3,0000.0,0009.97,0003.72,0003.14
2022-11-14 02:17:00,,0825.1,5.02,0.00,23.0,21.5,00.0,31.9,24.9,07.3,0000.0,0011.06,0003.72,0003.16
2022-11-14 02:18:00,,0825.2,4.99,0.00,23.0,21.5,00.0,31.9,24.9,07.3,0000.0,0011.06,0003.72,0003.17
2022-11-14 02:19:00,,0825.2,4.99,0.00,23.0,21.5,00.0,31.9,24.9,07.4,0000.0,0010.91,0003.72,0003.18
2022-11-14 02:20:00,,0825.2,5.00,0.00,23.0,21.5,00.0,31.9,24.9,07.3,0000.0,0011.35,0003.76,0003.20
2022-11-14 02:21:00,,0825.2,5.00,0.00,23.0,21.5,00.0,31.9,24.9,07.3,0000.0,0011.43,0003.80,0003.21
2022-11-14 02:22:00,,0825.2,5.00,0.00,23.0,21.5,00.0,31.9,24.9,07.3,0000.0,0011.95,0003.84,0003.22
2022-11-14 02:23:00,,0825.2,4.99,0.00,23.0,21.5,00.0,31.8,24.9,07.4,0000.0,0011.94,0003.85,0003.23
2022-11-14 02:24:00,,0825.2,5.02,0.00,23.0,21.5,00.0,31.9,24.9,07.4,0000.0,0011.99,0003.85,0003.24
2022-11-14 02:25:00,,0825.2,5.00,0.00,23.0,21.5,00.0,31.9,24.9,07.5,0000.0,0012.14,0003.81,0003.24
2022-11-14 02:26:00,,0825.2,4.99,0.00,23.0,21.4,00.0,31.8,24.9,07.6,0000.0,0012.09,0003.83,0003.25
2022-11-14 02:27:00,,0825.2,5.01,0.00,23.0,21.4,00.0,31.8,24.9,07.8,0000.0,0012.22,0003.83,0003.25
2022-11-14 02:28:00,,0825.2,5.00,0.00,23.0,21.3,00.0,31.8,24.8,07.9,0000.0,0011.20,0003.81,0003.25
2022-11-14 02:29:00,,0825.2,5.00,0.00,22.9,21.3,00.0,31.8,24.8,07.6,0000.0,0010.70,0003.84,0003.25
2022-11-14 02:30:00,,0825.2,5.00,0.00,22.9,21.2,00.0,31.8,24.8,07.4,0000.0,0010.38,0003.83,0003.26
2022-11-14 02:31:00,,0825.2,4.99,0.00,22.9,21.2,00.0,31.8,24.8,07.4,0000.0,0009.84,0003.86,0003.26
2022-11-14 02:32:00,,0825.2,5.00,0.00,22.9,21.2,00.0,31.8,24.7,07.4,0000.0,0009.74,0003.84,0003.26
2022-11-14 02:33:00,,0825.2,4.99,0.00,22.9,21.2,00.0,31.8,24.7,07.4,0000.0,0010.07,0003.85,0003.26
2022-11-14 02:34:00,,0825.3,5.00,0.00,22.9,21.2,00.0,31.8,24.7,07.4,0000.0,0009.72,0003.85,0003.27
2022-11-14 02:35:00,,0825.3,5.00,0.00,22.9,21.3,00.0,31.8,24.7,07.3,0000.0,0009.59,0003.87,0003.28
2022-11-14 02:36:00,,0825.3,5.00,0.00,22.9,21.3,00.0,31.7,24.7,07.3,0000.0,0008.90,0003.89,0003.29
2022-11-14 02:37:00,,0825.3,5.00,0.00,22.9,21.3,00.0,31.7,24.7,07.4,0000.0,0008.81,0003.90,0003.30
2022-11-14 02:38:00,,0825.3,4.99,0.00,22.9,21.4,00.0,31.7,24.7,07.4,0000.0,0008.62,0003.88,0003.31
2022-11-14 02:39:00,,0825.3,5.01,0.00,22.9,21.3,00.0,31.7,24.7,07.5,0000.0,0008.76,0003.90,0003.32
2022-11-14 02:40:00,,0825.3,4.99,0.00,22.8,21.3,00.0,31.7,24.7,07.5,0000.0,0009.24,0003.91,0003.33
2022-11-14 02:41:00,,0825.3,5.00,0.00,22.8,21.2,00.0,31.7,24.7,07.5,0000.0,0009.78,0003.95,0003.35
2022-11-14 02:42:00,,0825.3,5.00,0.00,22.8,21.1,00.0,31.7,24.7,07.6,0000.0,0009.59,0003.94,0003.36
2022-11-14 02:43:00,,0825.3,4.99,0.00,22.8,21.1,00.0,31.7,24.7,07.6,0000.0,0009.63,0003.95,0003.38
2022-11-14 02:44:00,,0825.3,5.02,0.00,22.8,21.1,00.0,31.7,24.6,07.6,0000.0,0009.09,0003.96,0003.39
2022-11-14 02:45:00,,0825.4,4.99,0.00,22.8,21.1,00.0,31.7,24.6,07.6,0000.0,0009.14,0003.98,0003.40
2022-11-14 02:46:00,,0825.4,5.00,0.00,22.8,21.1,00.0,31.6,24.6,07.7,0000.0,0009.29,0004.01,0003.40
2022-11-14 02:47:00,,0825.3,5.00,0.00,22.8,21.1,00.0,31.6,24.6,07.8,0000.0,0009.70,0004.02,0003.41
2022-11-14 02:48:00,,0825.4,5.01,0.00,22.7,21.1,00.0,31.6,24.6,07.8,0000.0,0009.77,0004.02,0003.40
2022-11-14 02:49:00,,0825.3,5.01,0.00,22.7,21.1,00.0,31.6,24.6,07.7,0000.0,0009.69,0004.01,0003.40
2022-11-14 02:50:00,,0825.4,4.99,0.00,22.7,21.1,00.0,31.6,24.6,07.7,0000.0,0009.67,0003.99,0003.41
2022-11-14 02:51:00,,0825.4,5.01,0.00,22.7,21.1,00.0,31.6,24.6,07.8,0000.0,0009.63,0003.99,0003.42
2022-11-14 02:52:00,,0825.4,5.00,0.00,22.7,21.1,00.0,31.6,24.6,07.7,0000.0,0009.19,0003.98,0003.41
2022-11-14 02:53:00,,0825.4,5.00,0.00,22.7,21.0,00.0,31.6,24.6,07.8,0000.0,0009.09,0003.95,0003.41
2022-11-14 02:54:00,,0825.4,5.00,0.00,22.7,21.0,00.0,31.6,24.5,07.7,0000.0,0008.59,0003.91,0003.41
2022-11-14 02:55:00,,0825.4,4.99,0.00,22.7,21.1,00.0,31.5,24.6,07.7,0000.0,0008.19,0003.87,0003.41
2022-11-14 02:56:00,,0825.4,5.02,0.00,22.8,21.8,00.0,31.5,24.8,07.6,0000.0,0008.14,0003.86,0003.42
2022-11-14 02:57:00,,0825.4,4.98,0.00,22.9,22.5,00.0,31.5,24.9,07.6,0000.0,0007.92,0003.83,0003.44
2022-11-14 02:58:00,,0825.4,5.02,0.00,22.9,22.3,00.0,31.6,24.9,07.6,0000.0,0007.50,0003.84,0003.45
2022-11-14 02:59:00,,0825.4,5.00,0.00,22.9,22.0,00.0,31.6,24.8,07.6,0000.0,0007.33,0003.84,0003.46
